Weather History for Paducah, KY

Change the Weather History Date:

Saturday, September 10, 2011

  Actual Average Record
Temperature  
Mean Temperature 67 °F 72 °F  
Max Temperature 81 °F 84 °F 102 °F (1939)
Min Temperature 52 °F 60 °F 46 °F (1998)
Degree Days  
Heating Degree Days 0 0  
Month to date heating degree days 3 0  
Since 1 July heating degree days 3 1  
Cooling Degree Days 2 8  
Month to date cooling degree days 69 90  
Year to date cooling degree days 1625 1403  
Growing Degree Days 16 (Base 50)    
Moisture  
Dew Point 57 °F    
Average Humidity 73    
Maximum Humidity 100    
Minimum Humidity 45    
Precipitation  
Precipitation T in 0.13 in 3.15 in (2010)
Month to date precipitation 0.20 1.12  
Year to date precipitation 50.38 33.60  
Snow  
Snow 0.00 in 0.00 in 0.00 in (2002)
Month to date snowfall 0.0 0.0  
Since 1 July snowfall 0.0 0.0  
Since 1 September snowfall 0.0 0.0  
Snow Depth 0.00 in    
Sea Level Pressure  
Sea Level Pressure 29.96 in    
Wind  
Wind Speed 3 mph (West)    
Max Wind Speed 14 mph    
Max Gust Speed 18 mph    
Visibility 4 miles    
Events Fog , Rain    
T = Trace of Precipitation, MM = Missing Value Source: NWS Daily Summary

Daily Weather History Graph

Daily Weather History Graph

Search for Another Location

Airport:

Trip Planner

Search our weather history database for the weather conditions in past years. The results will help you decide how hot, cold, wet, or windy it might be!

Date:

Astronomy

Sep. 10, 2011 Rise Set
Actual Time 6:32 AM CDT 7:10 PM CDT
Civil Twilight 6:06 AM CDT 7:36 PM CDT
Nautical Twilight 5:35 AM CDT 8:07 PM CDT
Astronomical Twilight 5:04 AM CDT 8:39 PM CDT
Moon 6:04 PM CDT (9/10) 4:54 AM CDT (9/10)
Length of Visible Light 13h 30m
Length of Day
12h 37m
Waxing Gibbous, 97% of the Moon is Illuminated
Sep 10
Waxing Gibbous
Sep 12
Full
Sep 20
Last Quarter
Sep 27
New
Oct 3
First Quarter

Hourly Weather History & Observations

Time (CDT) Temp. Heat Index Dew Point Humidity Pressure Visibility Wind Dir Wind Speed Gust Speed Precip Events Conditions
12:12 AM 59.0 °F - 57.2 °F 94% 29.94 in 1.8 mi Calm Calm - N/A   Clear
12:22 AM 57.2 °F - 55.4 °F 94% 29.94 in 0.5 mi Calm Calm - N/A Fog Fog
12:29 AM 57.2 °F - 55.4 °F 94% 29.94 in 0.2 mi Calm Calm - N/A Fog Fog
12:40 AM 57.2 °F - 55.4 °F 94% 29.94 in 0.2 mi Calm Calm - N/A Fog Fog
12:53 AM 55.9 °F - 55.0 °F 97% 29.94 in 0.2 mi Calm Calm - N/A Fog Fog
12:59 AM 55.4 °F - 55.4 °F 100% 29.94 in 1.0 mi Calm Calm - N/A   Mostly Cloudy
1:07 AM 57.2 °F - 55.4 °F 94% 29.94 in 6.0 mi Calm Calm - N/A   Scattered Clouds
1:13 AM 57.2 °F - 55.4 °F 94% 29.94 in 1.8 mi Calm Calm - N/A   Mostly Cloudy
1:18 AM 57.2 °F - 55.4 °F 94% 29.94 in 0.5 mi Calm Calm - N/A Fog Fog
1:26 AM 57.2 °F - 55.4 °F 94% 29.94 in 0.2 mi Calm Calm - N/A Fog Fog
1:53 AM 55.0 °F - 54.0 °F 96% 29.94 in 0.2 mi Calm Calm - N/A Fog Fog
2:05 AM 53.6 °F - 53.6 °F 100% 29.94 in 0.2 mi Calm Calm - N/A Fog Fog
2:27 AM 53.6 °F - 51.8 °F 94% 29.94 in 0.5 mi Calm Calm - N/A Fog Fog
2:36 AM 53.6 °F - 51.8 °F 94% 29.94 in 0.2 mi Calm Calm - N/A Fog Fog
2:45 AM 55.4 °F - 53.6 °F 94% 29.94 in 0.5 mi Calm Calm - N/A Fog Fog
2:53 AM 55.0 °F - 53.1 °F 93% 29.93 in 0.2 mi Calm Calm - N/A Fog Fog
3:09 AM 53.6 °F - 51.8 °F 94% 29.94 in 0.5 mi Calm Calm - N/A Fog Fog
3:13 AM 53.6 °F - 51.8 °F 94% 29.94 in 1.2 mi Calm Calm - N/A   Partly Cloudy
3:28 AM 53.6 °F - 51.8 °F 94% 29.94 in 3.0 mi Calm Calm - N/A   Partly Cloudy
3:53 AM 53.1 °F - 51.1 °F 93% 29.94 in 6.0 mi Calm Calm - N/A   Clear
4:53 AM 54.0 °F - 52.0 °F 93% 29.94 in 4.0 mi Calm Calm - N/A   Mostly Cloudy
5:53 AM 55.0 °F - 53.1 °F 93% 29.96 in 5.0 mi West 3.5 mph - N/A   Mostly Cloudy
6:08 AM 55.4 °F - 55.4 °F 100% 29.96 in 4.0 mi Calm Calm - N/A   Mostly Cloudy
6:22 AM 57.2 °F - 55.4 °F 94% 29.96 in 4.0 mi Calm Calm - N/A   Overcast
6:34 AM 57.2 °F - 55.4 °F 94% 29.97 in 1.2 mi WSW 3.5 mph - N/A   Overcast
6:38 AM 57.2 °F - 55.4 °F 94% 29.97 in 0.2 mi WSW 3.5 mph - N/A Fog Fog
6:53 AM 57.0 °F - 55.9 °F 96% 29.97 in 0.2 mi Calm Calm - N/A Fog Fog
7:16 AM 57.2 °F - 57.2 °F 100% 29.98 in 0.2 mi WSW 3.5 mph - N/A Fog Fog
7:53 AM 60.1 °F - 57.9 °F 93% 29.98 in 0.2 mi Calm Calm - N/A Fog Fog
8:01 AM 59.0 °F - 57.2 °F 94% 29.99 in 0.5 mi WSW 3.5 mph - N/A Fog Fog
8:15 AM 60.8 °F - 59.0 °F 94% 29.99 in 0.2 mi Calm Calm - N/A Fog Fog
8:37 AM 62.6 °F - 60.8 °F 94% 29.99 in 1.0 mi Calm Calm - N/A   Overcast
8:46 AM 62.6 °F - 60.8 °F 94% 29.99 in 3.0 mi Calm Calm - N/A   Overcast
8:53 AM 63.0 °F - 61.0 °F 93% 29.99 in 3.0 mi Calm Calm - N/A   Overcast
9:19 AM 64.4 °F - 62.6 °F 94% 30.00 in 5.0 mi West 3.5 mph - N/A   Scattered Clouds
9:53 AM 69.1 °F - 61.0 °F 75% 30.00 in 10.0 mi West 5.8 mph - N/A   Clear
10:53 AM 73.0 °F - 61.0 °F 66% 30.00 in 10.0 mi WNW 6.9 mph - N/A   Partly Cloudy
11:53 AM 78.1 °F - 61.0 °F 56% 30.00 in 10.0 mi NW 8.1 mph - N/A   Mostly Cloudy
12:53 PM 78.1 °F - 61.0 °F 56% 29.99 in 10.0 mi NW 6.9 mph - N/A   Mostly Cloudy
1:53 PM 78.1 °F - 57.9 °F 50% 29.97 in 10.0 mi Variable 4.6 mph - N/A   Mostly Cloudy
2:53 PM 80.1 °F 80.6 °F 57.9 °F 47% 29.96 in 10.0 mi Variable 5.8 mph - N/A   Partly Cloudy
3:53 PM 78.1 °F - 57.9 °F 50% 29.96 in 10.0 mi West 8.1 mph - N/A   Mostly Cloudy
4:53 PM 77.0 °F - 57.0 °F 50% 29.96 in 10.0 mi WNW 6.9 mph - N/A   Overcast
5:53 PM 75.0 °F - 59.0 °F 57% 29.96 in 10.0 mi Calm Calm - N/A   Overcast
6:53 PM 72.0 °F - 57.0 °F 59% 29.97 in 10.0 mi NW 3.5 mph - N/A   Partly Cloudy
7:53 PM 70.0 °F - 57.9 °F 65% 29.97 in 10.0 mi WNW 3.5 mph - N/A   Clear
8:53 PM 66.9 °F - 59.0 °F 76% 29.99 in 10.0 mi Calm Calm - N/A   Partly Cloudy
9:53 PM 66.0 °F - 60.1 °F 81% 30.00 in 10.0 mi Calm Calm - 0.00 in Rain Light Rain
10:53 PM 66.0 °F - 60.1 °F 81% 30.00 in 10.0 mi Calm Calm - 0.00 in   Overcast
11:53 PM 64.0 °F - 60.1 °F 87% 30.00 in 10.0 mi Calm Calm - N/A   Partly Cloudy